Location: Bats
(43.6587°N, 0.4584°W)
Time: 11:02:38
(UTC+00:00)

SJ-7 - Pass Details

Date: 12 January 2026
Orbit: 495 x 520 km, 97.7° (Epoch: 11 February)

Event Time Altitude Azimuth Distance (km) Brightness Sun altitude
Rises 18:18:22 0° 157° (SSE) 2,640 7.7 -16.1°
Reaches altitude 10° 18:20:28 10° 154° (SSE) 1,757 6.8 -16.5°
Maximum altitude 18:24:12 60° 74° (ENE) 605 4.2 -17.1°
Drops below altitude 10° 18:27:58 10° 355° (N) 1,767 6.8 -17.8°
Sets 18:30:05 0° 351° (N) 2,657 7.8 -18.2°
